Temp
13 12 12 12 12 13 13 13 14 15 16 16 16 16 16 16 16 16 16 16 14 14
13 13 13 13 13 13 13 13 14 14 15 15 15 15 15 15 16 15 15 15 15 14
13 13 13 13 13 13 13 13 13 14 14 14 14 14 15 15 15 15 15 15 14 14
12 12 13 13 13 13 13 13 14 14 13 13 14 14 14 14 14 13 14 14 13 14
13 13 13 13 13 13 13 13 13 13 13 14 13 13 13 14 14 13 13 13 13 13
13 13 13 13 13 13 13 13 13 13 13 13 13 13 13 14 14 14 14 14 13 14
13 13 13 13 13 13 13 13 13 13 13 13 13 13 13 13 13 13 13 13 13 13
13 13 13 13 13 13 13 13 13 12 12 13 13 14 14 13 13 13 13 13 13 14
15 14 13 13 13 13 13 13 13 13 13 13 13 14 14 14 13 13 13 13 13 13
17 16 15 14 14 14 14 14 14 14 14 14 14 14 14 14 14 14 14 14 14 13
9 10 14 16 15 15 15 14 14 14 15 15 15 15 15 15 15 14 14 14 14 14
5 6 7 11 16 16 16 16 15 15 15 15 15 15 15 15 15 14 14 13 12 12
2 3 4 5 7 14 16 16 15 14 12 12 12 9 11 12 13 11 9 7 6 6
-1 1 1 2 3 5 8 10 9 7 5 5 5 5 8 9 11 9 4 1 0 0
Height
744 748 751 755 759 763 767 770 774 778 783 787 791 795 800 801 804 807 809 813 822 823
741 744 747 751 755 758 763 767 770 774 778 782 786 791 795 797 800 802 805 806 814 817
736 741 745 748 750 754 757 761 765 770 773 776 781 785 788 790 794 796 798 798 803 807
731 735 739 742 744 748 752 755 758 761 765 769 772 775 778 781 784 787 789 791 794 795
727 730 732 735 739 742 745 748 751 754 757 760 762 765 766 770 774 777 779 781 785 785
720 723 726 729 731 735 738 740 743 746 748 751 753 756 757 760 764 765 766 770 774 773
710 714 718 723 726 728 731 733 734 735 739 742 745 746 749 752 754 756 758 761 762 763
697 703 708 713 717 721 722 724 726 729 731 733 735 735 738 739 742 745 747 749 751 751
692 695 697 701 705 708 711 715 719 720 723 724 724 725 728 732 735 738 739 738 739 741
693 686 687 690 694 697 700 706 706 709 712 713 715 716 720 724 726 727 727 727 729 731
695 693 692 686 683 684 688 691 694 697 701 703 703 706 708 711 713 714 716 717 718 717
695 693 689 685 680 674 678 680 683 687 690 691 695 695 695 698 701 704 707 706 707 707
697 692 688 684 677 674 669 672 677 679 682 684 686 686 688 691 693 694 697 699 699 699
699 693 688 683 679 674 671 669 673 675 681 684 685 683 682 683 684 685 688 692 696 698
Wind_Speed
28 31 30 34 32 31 30 30 32 36 37 36 33 31 34 29 31 30 30 25 29 29
31 28 30 32 34 35 31 30 32 36 36 36 37 37 33 30 32 31 32 34 38 34
31 31 30 28 34 34 35 35 33 35 36 35 36 38 37 36 37 37 38 37 40 42
29 33 30 30 31 34 35 37 38 39 38 36 39 41 40 39 35 35 38 39 37 41
29 30 33 33 31 34 35 38 39 38 39 41 39 40 40 40 37 38 38 39 38 39
33 32 33 32 31 35 36 36 37 39 41 40 41 41 42 42 42 43 42 41 40 44
36 36 36 33 34 34 36 36 38 42 41 42 41 42 42 42 43 43 45 44 43 44
39 39 37 37 36 35 39 38 38 38 40 41 43 44 44 44 44 43 43 43 44 45
33 35 38 38 39 40 38 39 38 40 40 39 42 45 47 43 38 39 40 43 43 43
21 34 37 37 38 39 39 36 41 41 37 38 40 44 46 49 49 42 44 43 39 38
27 23 16 32 37 37 36 39 40 40 40 37 40 40 44 50 49 47 43 38 37 39
25 24 23 20 31 38 36 36 35 34 34 37 36 35 39 42 43 41 37 39 33 33
21 21 21 24 24 23 34 31 26 26 20 20 21 16 25 33 29 28 24 16 12 9
22 19 23 23 26 20 2 16 17 17 11 7 2 3 7 12 20 21 15 13 15 13
Wind_Direction
191 194 192 193 195 199 205 208 206 206 210 214 217 216 218 220 218 221 221 230 242 246
201 195 197 201 200 202 204 208 208 214 211 215 219 224 224 224 227 225 225 219 238 244
200 206 205 202 203 206 208 208 210 214 221 225 225 226 226 227 230 229 231 226 225 232
201 205 208 209 208 209 212 213 214 215 218 219 223 227 227 228 227 228 228 226 224 229
205 208 211 214 212 212 215 216 217 219 221 223 225 225 224 227 225 226 227 230 231 234
204 209 215 215 213 215 216 217 219 221 224 225 228 229 228 228 229 231 234 235 234 236
204 209 214 218 221 220 220 221 220 221 224 225 227 228 228 228 229 231 233 233 232 234
204 207 211 213 219 223 224 226 224 225 226 226 228 230 228 227 226 226 229 232 233 234
204 204 208 211 214 218 222 222 225 228 228 228 230 232 231 227 227 230 233 236 237 238
228 206 210 210 211 217 219 220 224 229 229 230 231 234 235 236 235 235 236 239 240 240
359 353 293 215 212 216 215 218 222 227 228 230 234 237 237 238 239 236 239 238 237 238
360 350 345 342 231 221 217 218 221 224 225 227 232 235 236 236 238 241 245 244 244 247
356 357 358 354 332 273 222 218 216 210 218 223 223 235 243 246 241 231 225 227 233 248
5 10 9 11 10 2 7 178 164 152 123 104 162 215 224 224 230 216 173 139 110 107